TimePST,TemperatureF,Dew PointF,Humidity,Sea Level PressureIn,VisibilityMPH,Wind Direction,Wind SpeedMPH,Gust SpeedMPH,PrecipitationIn,Events,Conditions,WindDirDegrees,DateUTC
12:15 AM,33.8,33.8,100,30.06,4.0,Calm,Calm,-,0.00,Snow,Light Snow,0,2012-12-18 08:15:00
12:22 AM,33.8,33.8,100,30.06,1.8,Calm,Calm,-,0.02,Snow,Light Snow,0,2012-12-18 08:22:00
12:28 AM,33.8,33.8,100,30.06,1.2,Calm,Calm,-,0.04,Snow,Light Snow,0,2012-12-18 08:28:00
12:54 AM,32.0,32.0,100,30.06,1.2,SSE,5.8,-,0.11,Snow,Light Snow,160,2012-12-18 08:54:00
12:58 AM,32.0,32.0,100,30.05,1.8,SSE,8.1,-,0.01,Snow,Light Snow,150,2012-12-18 08:58:00
1:04 AM,32.0,32.0,100,30.04,3.0,SSE,6.9,-,0.02,Snow,Light Snow,150,2012-12-18 09:04:00
1:11 AM,33.8,33.8,100,30.05,7.0,SSE,5.8,-,0.02,Snow,Light Snow,160,2012-12-18 09:11:00
1:29 AM,32.0,32.0,100,30.05,10.0,SSE,4.6,-,0.02,,Scattered Clouds,160,2012-12-18 09:29:00
1:54 AM,32.0,32.0,100,30.06,10.0,SSE,6.9,-,0.02,,Partly Cloudy,150,2012-12-18 09:54:00
2:37 AM,32.0,32.0,100,30.06,4.0,SSW,4.6,-,0.00,Snow,Light Snow,200,2012-12-18 10:37:00
2:46 AM,32.0,32.0,100,30.05,2.5,SSE,5.8,-,0.00,Snow,Light Snow,150,2012-12-18 10:46:00
2:48 AM,33.8,32.0,93,30.05,3.0,SSE,4.6,-,0.01,Snow,Light Snow,150,2012-12-18 10:48:00
2:54 AM,33.1,32.0,96,30.06,7.0,SSE,4.6,-,0.01,Snow,Light Snow,150,2012-12-18 10:54:00
3:03 AM,33.8,33.8,100,30.05,9.0,SSE,5.8,-,0.00,,Overcast,150,2012-12-18 11:03:00
3:26 AM,33.8,32.0,93,30.05,10.0,SSE,6.9,-,0.00,,Overcast,160,2012-12-18 11:26:00
3:54 AM,32.0,30.9,96,30.04,10.0,SE,9.2,-,0.00,,Partly Cloudy,130,2012-12-18 11:54:00
4:54 AM,34.0,33.1,96,30.05,4.0,South,6.9,-,0.00,Snow,Light Snow,190,2012-12-18 12:54:00
5:36 AM,33.8,32.0,93,30.04,1.8,South,12.7,-,0.04,Snow,Light Snow,190,2012-12-18 13:36:00
5:54 AM,33.1,33.1,100,30.05,3.0,South,11.5,-,0.08,Snow,Light Snow,180,2012-12-18 13:54:00
6:05 AM,33.8,33.8,100,30.04,5.0,South,11.5,-,0.00,Snow,Light Snow,180,2012-12-18 14:05:00
6:46 AM,33.8,33.8,100,30.05,7.0,South,10.4,-,0.00,Snow,Light Snow,190,2012-12-18 14:46:00
6:54 AM,34.0,33.1,96,30.06,8.0,SSW,10.4,-,0.00,Snow,Light Snow,200,2012-12-18 14:54:00
7:24 AM,33.8,33.8,100,30.05,7.0,SSW,10.4,-,0.01,Snow,Light Snow,200,2012-12-18 15:24:00
7:54 AM,33.1,33.1,100,30.06,7.0,South,6.9,-,0.01,,Overcast,190,2012-12-18 15:54:00
8:13 AM,33.8,33.8,100,30.06,6.0,South,5.8,-,0.00,Snow,Light Snow,190,2012-12-18 16:13:00
8:54 AM,34.0,33.1,96,30.08,2.5,South,9.2,-,0.01,Snow,Light Snow,180,2012-12-18 16:54:00
9:00 AM,33.8,33.8,100,30.07,1.0,South,10.4,-,0.01,Snow,Light Snow,190,2012-12-18 17:00:00
9:16 AM,33.8,32.0,93,30.08,2.5,South,6.9,-,0.05,Snow,Light Snow,180,2012-12-18 17:16:00
9:54 AM,34.0,33.1,96,30.10,5.0,SSW,5.8,-,0.06,Snow,Light Snow,200,2012-12-18 17:54:00
10:04 AM,33.8,33.8,100,30.10,2.0,South,4.6,-,0.00,Snow,Light Snow,180,2012-12-18 18:04:00
10:11 AM,33.8,32.0,93,30.09,2.0,SSE,8.1,-,0.02,Snow,Light Snow,160,2012-12-18 18:11:00
10:17 AM,33.8,33.8,100,30.09,7.0,SSE,6.9,-,0.03,Snow,Light Snow,160,2012-12-18 18:17:00
10:54 AM,35.1,33.1,92,30.12,8.0,SSW,4.6,-,0.03,Snow,Light Snow,210,2012-12-18 18:54:00
10:57 AM,33.8,32.0,93,30.10,1.5,South,5.8,-,0.00,Snow,Light Snow,190,2012-12-18 18:57:00
11:10 AM,33.8,33.8,100,30.10,4.0,South,6.9,-,0.02,Snow,Light Snow,190,2012-12-18 19:10:00
11:19 AM,33.8,33.8,100,30.10,7.0,South,6.9,-,0.02,,Mostly Cloudy,190,2012-12-18 19:19:00
11:54 AM,34.0,33.1,96,30.11,8.0,South,9.2,-,0.02,,Mostly Cloudy,180,2012-12-18 19:54:00
12:54 PM,36.0,34.0,93,30.11,7.0,WSW,8.1,-,0.00,Rain,Light Rain,240,2012-12-18 20:54:00
1:54 PM,35.1,34.0,96,30.10,9.0,SSW,8.1,-,0.02,Rain-Snow,Light Rain,210,2012-12-18 21:54:00
2:22 PM,37.4,35.6,93,30.09,10.0,South,11.5,-,0.00,,Mostly Cloudy,190,2012-12-18 22:22:00
2:54 PM,37.0,34.0,89,30.10,10.0,South,12.7,-,0.00,,Mostly Cloudy,170,2012-12-18 22:54:00
3:41 PM,35.6,33.8,93,30.10,4.0,SSW,9.2,-,0.00,Rain-Snow,Light Snow,210,2012-12-18 23:41:00
3:54 PM,36.0,34.0,93,30.11,7.0,South,8.1,-,0.02,Rain-Snow,Light Rain,180,2012-12-18 23:54:00
4:54 PM,35.1,33.1,92,30.11,10.0,South,6.9,-,0.00,,Mostly Cloudy,170,2012-12-19 00:54:00
5:19 PM,35.6,33.8,93,30.10,10.0,SSE,6.9,-,N/A,,Overcast,160,2012-12-19 01:19:00
5:54 PM,34.0,33.1,96,30.12,10.0,South,6.9,-,N/A,,Scattered Clouds,180,2012-12-19 01:54:00
6:06 PM,35.6,33.8,93,30.11,10.0,South,4.6,-,N/A,,Mostly Cloudy,180,2012-12-19 02:06:00
6:39 PM,35.6,33.8,93,30.12,10.0,South,6.9,-,N/A,,Mostly Cloudy,180,2012-12-19 02:39:00
6:54 PM,34.0,32.0,92,30.13,10.0,South,6.9,-,N/A,,Overcast,170,2012-12-19 02:54:00
7:54 PM,33.1,32.0,96,30.13,10.0,South,6.9,-,N/A,,Mostly Cloudy,170,2012-12-19 03:54:00
8:54 PM,33.1,32.0,96,30.13,10.0,South,6.9,-,N/A,,Mostly Cloudy,190,2012-12-19 04:54:00
9:54 PM,33.1,32.0,96,30.13,10.0,SSW,4.6,-,N/A,,Mostly Cloudy,200,2012-12-19 05:54:00
10:54 PM,34.0,32.0,92,30.11,10.0,SSE,6.9,-,N/A,,Overcast,160,2012-12-19 06:54:00
11:54 PM,34.0,32.0,92,30.11,10.0,South,5.8,-,N/A,,Overcast,180,2012-12-19 07:54:00